Home > Weather > Martigny > Past weeks

Flag for Switzerland Weather for the Past 2 Weeks in Martigny, Valais, Switzerland

Now
63 °F

Sunny.


Feels Like: 63 °F
Forecast: 52 / 78 °F
Wind: 2 mph from South

Location: Sion

Current Time: May 6, 2016 at 11:51:57 AM

Latest Report: May 6, 2016 at 11:00 AM


Visibility: 31 mi

Pressure: 30.01 "Hg

Humidity: 30%

Dew Point: 31 °F

Location of MartignyLocation

Historic Weather in Martigny — Graph

°F

Martigny Temperature Yesterday

Maximum temperature yesterday: 72 °F (at 5:00 PM)
Minimum temperature yesterday: 40 °F (at 6:00 AM)
Average temperature yesterday: 57 °F

High & Low Weather Summary for the Past Weeks

 TemperatureHumidityPressure
High73 °F (Apr 21, 3:00 PM)94% (Apr 23, 4:00 AM)30.33 "Hg (Apr 23, 4:00 AM)
Low33 °F (Apr 28, 7:00 AM)21% (May 5, 3:00 PM)29.64 "Hg (Apr 26, 2:00 PM)
Average52 °F55%29.99 "Hg
* Reported Apr 21 10:00 AM — May 6 10:00 AM, Martigny, Weather by CustomWeather, © 2016

Note: Actual official high and low records may vary slightly from our data, if they occured in-between our weather recording intervals... More about our weather records

Advertising

Martigny Weather History for the Previous 24 Hours

Scroll right to see more
 ConditionsComfort  
Time TempWeatherWind HumidityBarometerVisibility
10:00 AM
Fri, May 6
60 °FRefreshingly cool.2 mph37%30.04 "HgN/A
9:00 AM56 °FRefreshingly cool.2 mph46%30.08 "HgN/A
8:00 AM51 °FSunny.3 mph53%30.11 "Hg31 mi
7:00 AM46 °FCool.3 mph64%30.14 "HgN/A
6:00 AM46 °FCool.2 mph62%30.13 "HgN/A
5:00 AM46 °FClear.3 mph61%30.13 "Hg9 mi
4:00 AM47 °FCool.2 mph60%30.13 "HgN/A
3:00 AM46 °FCool.1 mph72%30.14 "HgN/A
2:00 AM48 °FClear.1 mph64%30.14 "Hg9 mi
1:00 AM49 °FCool.1 mph58%30.13 "HgN/A
12:00 AM52 °FCool.1 mph54%30.11 "HgN/A
11:00 PM
Thu, May 5
55 °FPassing clouds.2 mph42%30.09 "Hg9 mi
10:00 PM60 °FRefreshingly cool.2 mph32%30.05 "HgN/A
9:00 PM63 °FMild.7 mph28%30.02 "HgN/A
8:00 PM66 °FMild.15 mph24%29.99 "HgN/A
7:00 PM69 °FMild.15 mph23%29.97 "HgN/A
6:00 PM71 °FMild.14 mph21%29.96 "HgN/A
5:00 PM72 °FSunny.13 mph21%29.97 "Hg31 mi
4:00 PM71 °FMild.14 mph21%29.98 "HgN/A
3:00 PM71 °FMild.14 mph21%29.99 "HgN/A
2:00 PM70 °FSunny.15 mph23%29.99 "Hg31 mi
1:00 PM70 °FMild.12 mph23%30.00 "HgN/A
12:00 PM64 °FMild.3 mph30%30.04 "HgN/A
11:00 AM59 °FSunny.2 mph35%30.06 "Hg31 mi
Weather by CustomWeather, © 2016

See weather overviewHow to use our weather pages